Blacksburg, VA

10:53 PM EDT on April 24, 2017 (GMT -0400)
Virginia Tech

Weather History for KBCB - August, 2014

Change the Weather History Date:

Monday, August 18, 2014

  Actual Average Record
Temperature  
Mean Temperature 69 °F 70 °F  
Max Temperature 72 °F 82 °F 94 °F (1988)
Min Temperature 65 °F 59 °F 46 °F (1979)
Degree Days  
Heating Degree Days 0 0  
Month to date heating degree days 2 0  
Since 1 June heating degree days 13 44  
Since 1 July heating degree days 10 6  
Cooling Degree Days 4 5  
Month to date cooling degree days 41 107  
Year to date cooling degree days 445 451  
Since 1 June cooling degree days 387 422  
Growing Degree Days 20 (Base 50)    
Moisture  
Dew Point 69 °F    
Average Humidity 97    
Maximum Humidity 100    
Minimum Humidity 93    
Precipitation  
Precipitation 0.98 in 0.11 in 2.96 in (1985)
Month to date precipitation 5.35 2.14  
Year to date precipitation 25.17 27.74  
Snow  
Snow 0.00 in - - ()
Month to date snowfall 0.0  
Since 1 June snowfall T  
Since 1 July snowfall 0.0  
Snow Depth 0.00 in    
Sea Level Pressure  
Sea Level Pressure 29.97 in    
Wind  
Wind Speed 1 mph (SE)    
Max Wind Speed 5 mph    
Max Gust Speed -    
Visibility 4 miles    
Events Rain    
T = Trace of Precipitation, MM = Missing Value Source: NWS Daily Summary

Daily Weather History Graph

Daily Weather History Graph

Search for Another Location

Airport or City:

Trip Planner

Search our weather history database for the weather conditions in past years. The results will help you decide how hot, cold, wet, or windy it might be!

Date:

Astronomy

Aug. 18, 2014 Rise Set
Actual Time 6:40 AM EDT 8:09 PM EDT
Civil Twilight 6:13 AM EDT 8:37 PM EDT
Nautical Twilight 5:40 AM EDT 9:10 PM EDT
Astronomical Twilight 5:05 AM EDT 9:44 PM EDT
Moon 12:48 AM EDT (8/18) 3:09 PM EDT (8/18)
Length of Visible Light 14h 24m
Length of Day
13h 29m
Last Quarter, 38% of the Moon is Illuminated
Aug 18
Last Quarter
Aug 25
New
Sep 2
First Quarter
Sep 8
Full
Sep 15
Last Quarter

Hourly Weather History & Observations

Time (EDT) Temp. Dew Point Humidity Pressure Visibility Wind Dir Wind Speed Gust Speed Precip Events Conditions
12:15 AM 66.2 °F 66.2 °F 100% 30.06 in 0.8 mi Calm Calm - N/A   Mostly Cloudy
12:35 AM 66.2 °F 66.2 °F 100% 30.06 in 1.0 mi Calm Calm - N/A   Overcast
12:55 AM 68.0 °F 68.0 °F 100% 30.06 in 5.0 mi Calm Calm - N/A   Mostly Cloudy
1:15 AM 68.0 °F 68.0 °F 100% 30.05 in 2.5 mi Calm Calm - N/A   Scattered Clouds
1:35 AM 68.0 °F 68.0 °F 100% 30.04 in 2.5 mi Calm Calm - N/A   Scattered Clouds
1:55 AM 68.0 °F 68.0 °F 100% 30.04 in 1.8 mi Calm Calm - N/A   Overcast
2:15 AM 68.0 °F 68.0 °F 100% 30.04 in 1.8 mi Calm Calm - N/A   Overcast
2:35 AM 68.0 °F 68.0 °F 100% 30.03 in 1.0 mi Calm Calm - N/A   Overcast
2:55 AM 68.0 °F 68.0 °F 100% 30.03 in 1.8 mi Calm Calm - N/A   Overcast
3:15 AM 68.0 °F 68.0 °F 100% 30.02 in 1.2 mi Calm Calm - N/A   Overcast
3:35 AM 68.0 °F 68.0 °F 100% 30.02 in 1.5 mi Calm Calm - N/A   Light Drizzle
3:55 AM 68.0 °F 68.0 °F 100% 30.02 in 1.2 mi Calm Calm - N/A   Mostly Cloudy
4:15 AM 68.0 °F 68.0 °F 100% 30.02 in 2.0 mi Calm Calm - N/A   Mostly Cloudy
4:35 AM 66.2 °F 66.2 °F 100% 30.01 in 1.5 mi Calm Calm - N/A   Mostly Cloudy
5:15 AM 66.2 °F 66.2 °F 100% 30.01 in 1.8 mi Calm Calm - N/A   Mostly Cloudy
5:35 AM 68.0 °F 68.0 °F 100% 30.01 in 1.5 mi Calm Calm - N/A   Overcast
5:55 AM 66.2 °F 66.2 °F 100% 30.00 in 2.5 mi Calm Calm - N/A   Mostly Cloudy
6:15 AM 66.2 °F 66.2 °F 100% 30.00 in 2.0 mi Calm Calm - N/A   Mostly Cloudy
6:35 AM 66.2 °F 66.2 °F 100% 30.01 in 2.0 mi Calm Calm - N/A   Mostly Cloudy
6:55 AM 66.2 °F 66.2 °F 100% 30.01 in 2.0 mi Calm Calm - N/A   Overcast
7:15 AM 66.2 °F 66.2 °F 100% 30.01 in 2.0 mi Calm Calm - N/A   Overcast
7:35 AM 68.0 °F 68.0 °F 100% 30.01 in 1.5 mi Calm Calm - N/A   Overcast
7:55 AM 68.0 °F 68.0 °F 100% 30.01 in 1.2 mi Calm Calm - N/A Rain Light Rain
8:15 AM 68.0 °F 68.0 °F 100% 30.00 in 1.8 mi Calm Calm - N/A   Overcast
8:35 AM 69.8 °F 69.8 °F 100% 30.01 in 5.0 mi Calm Calm - N/A   Mostly Cloudy
8:55 AM 69.8 °F 69.8 °F 100% 30.01 in 5.0 mi Calm Calm - N/A   Scattered Clouds
9:15 AM 71.6 °F 71.6 °F 100% 30.01 in 4.0 mi Calm Calm - N/A   Light Drizzle
9:35 AM 71.6 °F 71.6 °F 100% 30.01 in 5.0 mi Calm Calm - N/A Rain Rain
9:55 AM 71.6 °F 69.8 °F 94% 30.00 in 7.0 mi Calm Calm - N/A Rain Light Rain
10:15 AM 71.6 °F 69.8 °F 94% 30.00 in 7.0 mi Calm Calm - N/A Rain Light Rain
10:35 AM 71.6 °F 69.8 °F 94% 29.99 in 10.0 mi Calm Calm - N/A   Light Drizzle
10:55 AM 71.6 °F 69.8 °F 94% 30.00 in 7.0 mi Calm Calm - N/A Rain Rain
11:15 AM 71.6 °F 69.8 °F 94% 30.00 in 4.0 mi Calm Calm - N/A Rain Rain
11:35 AM 71.6 °F 69.8 °F 94% 29.99 in 7.0 mi Calm Calm - N/A Rain Light Rain
11:55 AM 71.6 °F 71.6 °F 100% 29.99 in 4.0 mi East 3.5 mph - N/A Rain Rain
12:15 PM 69.8 °F 69.8 °F 100% 29.98 in 4.0 mi ESE 4.6 mph - N/A Rain Rain
12:35 PM 69.8 °F 69.8 °F 100% 29.98 in 5.0 mi ESE 3.5 mph - N/A Rain Rain
12:55 PM 69.8 °F 69.8 °F 100% 29.97 in 4.0 mi ESE 4.6 mph - 0.03 in Rain Rain
1:15 PM 69.8 °F 69.8 °F 100% 29.97 in 4.0 mi ESE 5.8 mph - 0.02 in Rain Rain
1:35 PM 69.8 °F 69.8 °F 100% 29.96 in 4.0 mi ESE 6.9 mph - 0.07 in Rain Rain
1:55 PM 69.8 °F 69.8 °F 100% 29.95 in 4.0 mi ESE 4.6 mph - 0.08 in Rain Rain
2:15 PM 69.8 °F 69.8 °F 100% 29.94 in 4.0 mi ESE 5.8 mph - 0.03 in Rain Rain
2:35 PM 69.8 °F 69.8 °F 100% 29.93 in 2.5 mi East 5.8 mph - 0.12 in Rain Heavy Rain
2:55 PM 69.8 °F 69.8 °F 100% 29.93 in 2.5 mi East 4.6 mph - 0.27 in Rain Heavy Rain
3:15 PM 69.8 °F 69.8 °F 100% 29.92 in 2.5 mi SSE 3.5 mph - 0.10 in Rain Heavy Rain
3:35 PM 69.8 °F 69.8 °F 100% 29.91 in 5.0 mi Calm Calm - 0.13 in Rain Rain
3:55 PM 69.8 °F 69.8 °F 100% 29.90 in 5.0 mi Calm Calm - 0.15 in Rain Light Rain
4:15 PM 69.8 °F 69.8 °F 100% 29.90 in 7.0 mi Calm Calm - 0.01 in Rain Rain
4:35 PM 71.6 °F 71.6 °F 100% 29.90 in 4.0 mi Calm Calm - 0.01 in   Heavy Drizzle
4:55 PM 71.6 °F 71.6 °F 100% 29.90 in 7.0 mi Calm Calm - 0.01 in   Overcast
5:15 PM 71.6 °F 71.6 °F 100% 29.90 in 4.0 mi Calm Calm - N/A Rain Heavy Rain
5:35 PM 71.6 °F 71.6 °F 100% 29.89 in 5.0 mi Calm Calm - N/A   Overcast
5:55 PM 71.6 °F 71.6 °F 100% 29.89 in 7.0 mi Calm Calm - N/A   Overcast
6:15 PM 73.4 °F 73.4 °F 100% 29.89 in 10.0 mi Calm Calm - N/A   Mostly Cloudy
6:35 PM 73.4 °F 73.4 °F 100% 29.89 in 10.0 mi SW 3.5 mph - N/A   Overcast
6:55 PM 71.6 °F 71.6 °F 100% 29.89 in 5.0 mi Calm Calm - N/A   Overcast
7:15 PM 71.6 °F 71.6 °F 100% 29.89 in 2.0 mi Calm Calm - 0.01 in Rain Heavy Rain
7:35 PM 71.6 °F 71.6 °F 100% 29.89 in 5.0 mi Calm Calm - 0.01 in   Drizzle
7:55 PM 71.6 °F 71.6 °F 100% 29.90 in 5.0 mi WNW 4.6 mph - 0.04 in Rain Light Rain
8:15 PM 69.8 °F 69.8 °F 100% 29.90 in 10.0 mi WNW 4.6 mph - N/A   Overcast
8:35 PM 69.8 °F 69.8 °F 100% 29.90 in 10.0 mi WNW 4.6 mph - N/A   Overcast
8:55 PM 69.8 °F 69.8 °F 100% 29.90 in 10.0 mi WNW 3.5 mph - N/A   Overcast
9:15 PM 69.8 °F 69.8 °F 100% 29.90 in 10.0 mi Calm Calm - N/A   Mostly Cloudy
9:35 PM 69.8 °F 69.8 °F 100% 29.90 in 7.0 mi Calm Calm - N/A   Scattered Clouds
9:55 PM 69.8 °F 69.8 °F 100% 29.90 in 7.0 mi Calm Calm - N/A   Clear
10:15 PM 68.0 °F 68.0 °F 100% 29.91 in 5.0 mi Calm Calm - N/A   Scattered Clouds
10:35 PM 69.8 °F 69.8 °F 100% 29.90 in 7.0 mi Calm Calm - N/A   Overcast
10:55 PM 69.8 °F 69.8 °F 100% 29.91 in 7.0 mi Calm Calm - N/A   Overcast
11:15 PM 69.8 °F 69.8 °F 100% 29.92 in 7.0 mi Calm Calm - N/A   Overcast
11:35 PM 69.8 °F 69.8 °F 100% 29.91 in 5.0 mi West 4.6 mph - N/A   Overcast